Change the Weather History Date:

Tuesday, March 5, 2013

  Actual Average Record
Temperature  
Mean Temperature 40 °F 44 °F  
Max Temperature 47 °F 54 °F 71 °F (1968)
Min Temperature 33 °F 33 °F 4 °F (1978)
Degree Days  
Heating Degree Days 25 21  
Month to date heating degree days 143 110  
Since 1 July heating degree days 3382 3607  
Cooling Degree Days 0 0  
Month to date cooling degree days 0 0  
Year to date cooling degree days 0 0  
Moisture  
Dew Point 31 °F    
Average Humidity 72    
Maximum Humidity 96    
Minimum Humidity 48    
Precipitation  
Precipitation 0.10 in 0.13 in 1.18 in (1989)
Month to date precipitation 0.11 0.60  
Year to date precipitation 6.73 7.48  
Sea Level Pressure  
Sea Level Pressure 29.93 in    
Wind  
Wind Speed 15 mph (NW)    
Max Wind Speed 31 mph    
Max Gust Speed 40 mph    
Visibility 8 miles    
Events Rain , Snow    
T = Trace of Precipitation, MM = Missing Value Source: NWS Daily Summary

Daily Weather History Graph

Daily Weather History Graph

Search for Another Location

Airport or City:

Trip Planner

Search our weather history database for the weather conditions in past years. The results will help you decide how hot, cold, wet, or windy it might be!

Date:

Astronomy

Mar. 05, 2013 Rise Set
Actual Time 6:23 AM CST 5:56 PM CST
Civil Twilight 5:57 AM CST 6:22 PM CST
Nautical Twilight 5:27 AM CST 6:52 PM CST
Astronomical Twilight 4:57 AM CST 7:22 PM CST
Moon 1:29 AM CST (3/5) 11:41 AM CST (3/5)
Length of Visible Light 12h 25m
Length of Day
11h 33m
Last Quarter, 40% of the Moon is Illuminated
Mar 5
Last Quarter
Mar 11
New
Mar 19
First Quarter
Mar 27
Full
Apr 2
Last Quarter

Hourly Weather History & Observations

Time (CST) Temp. Windchill Dew Point Humidity Pressure Visibility Wind Dir Wind Speed Gust Speed Precip Events Conditions
1:53 AM 43.0 °F 39.5 °F 39.0 °F 86% 29.77 in 10.0 mi NNW 5.8 mph - N/A   Clear
2:53 AM 41.0 °F - 37.9 °F 89% 29.75 in 10.0 mi Calm Calm - N/A   Mostly Cloudy
3:53 AM 37.9 °F - 36.0 °F 93% 29.78 in 7.0 mi Calm Calm - N/A   Clear
4:53 AM 39.9 °F 36.7 °F 37.9 °F 93% 29.80 in 7.0 mi West 4.6 mph - N/A   Overcast
5:53 AM 44.1 °F 38.1 °F 39.9 °F 85% 29.78 in 10.0 mi NNW 11.5 mph - N/A   Mostly Cloudy
6:53 AM 44.1 °F 40.1 °F 39.9 °F 85% 29.79 in 10.0 mi NW 6.9 mph - N/A   Mostly Cloudy
7:53 AM 45.0 °F 40.1 °F 41.0 °F 86% 29.83 in 7.0 mi NW 9.2 mph - 0.00 in Rain Light Rain
8:45 AM 41.0 °F 31.4 °F 37.4 °F 87% 29.86 in 5.0 mi WNW 21.9 mph 28.8 mph 0.02 in Rain Light Rain
8:53 AM 39.9 °F 30.0 °F 37.0 °F 89% 29.87 in 7.0 mi WNW 21.9 mph 27.6 mph 0.02 in Rain Light Rain
9:19 AM 39.2 °F 29.0 °F 35.6 °F 87% 29.89 in 7.0 mi WNW 21.9 mph 29.9 mph 0.00 in Rain Light Rain
9:53 AM 35.1 °F 25.9 °F 32.0 °F 89% 29.90 in 3.0 mi NW 13.8 mph 23.0 mph 0.01 in Snow Light Snow
10:09 AM 35.6 °F 26.2 °F 32.0 °F 87% 29.89 in 2.5 mi NNW 15.0 mph - 0.02 in Snow Light Snow
10:18 AM 33.8 °F 24.8 °F 32.0 °F 93% 29.90 in 2.5 mi NW 12.7 mph - 0.03 in Snow Light Snow
10:41 AM 33.8 °F 25.8 °F 30.2 °F 87% 29.90 in 1.2 mi NW 10.4 mph - 0.04 in Snow Light Snow
10:53 AM 34.0 °F 25.5 °F 32.0 °F 92% 29.91 in 1.5 mi NW 11.5 mph - 0.05 in Snow Light Snow
11:40 AM 33.8 °F 24.8 °F 33.8 °F 100% 29.94 in 3.0 mi WNW 12.7 mph - 0.02 in Snow Light Snow
11:53 AM 36.0 °F 27.5 °F 33.1 °F 89% 29.95 in 9.0 mi WNW 12.7 mph - 0.02 in   Overcast
12:02 PM 35.6 °F 27.5 °F 33.8 °F 93% 29.94 in 10.0 mi NW 11.5 mph - N/A   Overcast
12:53 PM 37.9 °F 28.5 °F 32.0 °F 79% 29.95 in 10.0 mi WNW 17.3 mph 27.6 mph N/A   Overcast
1:53 PM 39.9 °F 30.0 °F 32.0 °F 73% 29.95 in 10.0 mi NW 21.9 mph 28.8 mph N/A   Overcast
2:19 PM 39.2 °F 29.8 °F 30.2 °F 70% 29.95 in 10.0 mi WNW 18.4 mph 32.2 mph N/A   Overcast
2:53 PM 39.9 °F 29.2 °F 28.9 °F 65% 29.97 in 10.0 mi WNW 25.3 mph 33.4 mph N/A   Overcast
3:53 PM 41.0 °F 30.7 °F 26.1 °F 55% 29.99 in 10.0 mi WNW 25.3 mph 32.2 mph N/A   Partly Cloudy
4:53 PM 39.0 °F 27.6 °F 21.9 °F 50% 30.03 in 10.0 mi NW 27.6 mph 35.7 mph N/A   Scattered Clouds
5:53 PM 35.1 °F 24.8 °F 21.0 °F 57% 30.08 in 10.0 mi WNW 17.3 mph 31.1 mph N/A   Overcast
6:53 PM 34.0 °F 24.2 °F 21.0 °F 59% 30.08 in 10.0 mi WNW 15.0 mph 24.2 mph N/A   Overcast
7:53 PM 34.0 °F 24.2 °F 21.9 °F 61% 30.08 in 10.0 mi West 15.0 mph - N/A   Mostly Cloudy
8:53 PM 35.1 °F 23.8 °F 23.0 °F 61% 30.09 in 10.0 mi WNW 20.7 mph 32.2 mph N/A   Overcast
9:53 PM 34.0 °F 22.1 °F 23.0 °F 64% 30.11 in 10.0 mi WNW 21.9 mph 32.2 mph 0.00 in   Overcast
10:53 PM 35.1 °F 24.1 °F 23.0 °F 61% 30.12 in 10.0 mi NW 19.6 mph 29.9 mph N/A   Overcast
11:53 PM 35.1 °F 23.5 °F 23.0 °F 61% 30.12 in 10.0 mi NW 21.9 mph 34.5 mph N/A   Overcast